Wetbulb
46.82 42.85 40.80 43.69 45.49 44.79 43.54 41.91 40.85 43.42 45.84 44.77 44.83 47.11 49.39 52.26 52.60 52.49 54.65 56.61 57.20 58.02 61.16 64.11 64.39 67.57 66.40 70.93 72.72 72.32 72.26 73.09 74.80 73.64 70.71 69.38 69.23 69.98 71.82 72.80 74.59 75.46 74.16 73.18
42.84 40.16 44.52 45.45 44.84 43.49 42.69 40.58 40.07 42.98 44.92 44.66 44.42 44.27 48.15 51.26 51.99 53.64 54.89 55.13 56.27 58.58 60.79 61.49 63.62 67.12 69.92 70.84 71.09 71.36 72.43 73.25 73.36 71.72 70.48 71.62 70.86 69.52 71.21 73.39 74.41 75.33 74.46 73.27
39.87 42.00 44.78 43.46 42.16 40.95 41.47 40.07 40.17 39.84 42.98 44.08 42.89 41.86 45.70 49.02 52.01 53.29 54.38 56.09 57.23 57.30 58.06 60.47 63.59 66.54 69.72 69.38 70.00 70.74 71.04 71.49 72.22 70.75 70.95 71.69 71.43 73.85 74.32 73.34 73.40 74.15 74.03 73.47
41.30 43.78 42.02 41.44 40.55 41.34 37.35 42.41 41.58 41.10 39.42 34.66 42.70 34.44 43.14 46.78 48.88 51.54 52.77 54.30 55.95 57.19 57.98 58.34 60.99 63.73 67.18 68.42 69.98 72.05 71.26 70.57 70.90 72.34 71.13 70.13 68.73 68.27 71.37 73.26 72.94 73.06 73.47 72.87
39.09 40.87 40.78 40.00 40.44 42.94 40.05 43.64 42.17 41.13 39.11 38.29 38.22 35.67 39.78 44.84 45.15 49.03 52.65 54.25 55.71 57.04 57.92 57.33 57.95 60.34 63.85 65.16 65.51 67.73 70.46 71.05 70.74 71.15 71.26 69.51 70.86 71.12 74.15 74.01 73.70 72.09 73.15 71.91
41.90 45.52 43.84 43.06 44.44 44.67 45.07 42.15 41.70 40.92 39.21 32.27 36.46 36.55 37.47 41.16 44.48 47.47 51.57 54.23 55.19 56.26 57.27 58.85 60.20 60.16 59.89 62.34 64.38 67.21 67.66 68.03 70.61 71.45 72.89 71.98 71.98 71.61 71.34 72.33 70.83 69.78 70.26 69.67
39.88 40.94 43.91 44.89 40.85 43.47 43.24 38.80 31.05 29.52 30.56 29.92 38.52 36.25 39.41 44.49 46.08 47.88 49.85 52.69 54.58 56.19 58.19 58.89 59.17 59.55 60.24 60.70 61.23 62.51 67.55 68.09 71.11 70.37 72.21 70.83 73.04 71.98 74.34 70.96 69.47 68.80 68.13 68.15
33.45 31.63 39.72 43.35 40.44 38.92 38.95 35.43 29.80 23.33 25.96 30.40 37.89 32.54 37.80 45.76 47.83 50.10 51.38 52.73 54.79 56.34 57.16 58.50 59.65 61.31 60.19 61.93 63.34 65.06 66.67 68.43 69.94 69.44 69.65 71.96 71.90 72.64 72.21 70.39 69.09 68.62 67.95 68.46
33.93 33.86 42.05 42.31 43.47 43.26 39.62 35.61 38.76 33.16 35.40 30.34 34.23 37.56 42.03 45.28 46.10 47.84 50.26 52.08 54.26 55.42 56.57 58.83 60.46 60.48 61.21 62.99 65.49 65.80 66.56 67.32 68.19 69.92 71.19 72.28 72.92 73.52 71.67 71.17 70.57 70.14 70.23 70.39
39.26 32.67 40.21 41.37 43.01 42.70 41.47 42.79 34.78 34.89 25.15 23.87 31.33 33.15 35.16 41.44 44.72 46.68 49.11 51.72 53.38 56.53 57.43 59.88 62.29 64.20 65.90 68.02 66.52 67.10 68.46 70.00 71.55 71.80 72.66 72.85 73.59 74.26 72.85 72.65 71.44 70.97 71.53 70.80
41.69 37.52 36.60 40.81 38.47 37.53 39.25 37.77 37.87 36.52 33.64 26.60 26.45 32.01 43.87 43.19 43.66 42.93 48.41 51.73 54.90 55.50 56.15 59.91 63.93 65.54 65.91 69.17 70.13 71.03 70.49 71.43 71.12 71.17 71.73 72.43 72.84 73.06 72.97 71.89 70.85 70.90 71.25 70.53
42.34 38.13 32.84 35.29 41.64 43.02 41.76 38.88 37.95 31.65 29.92 33.75 32.90 32.75 45.29 43.88 42.37 42.99 42.85 52.21 53.66 56.74 61.97 62.79 64.06 66.90 67.11 67.44 69.36 70.75 71.13 69.59 70.21 71.87 72.08 72.18 71.49 71.49 70.68 69.68 69.24 70.39 69.50 69.69
40.89 35.60 29.15 31.99 38.02 40.83 37.27 38.62 39.57 39.52 37.54 32.14 29.50 32.52 44.75 42.54 40.91 43.18 43.90 50.05 52.96 54.32 62.69 62.55 63.40 64.94 66.60 68.54 68.25 68.67 69.13 69.61 70.03 69.85 69.42 69.38 68.32 68.48 68.99 68.80 69.43 69.58 68.96 69.40
41.29 36.20 32.06 27.97 32.60 34.51 32.32 34.79 38.19 37.94 32.89 33.27 33.82 35.50 40.19 39.62 40.48 42.90 45.02 46.89 52.13 53.46 61.79 62.50 63.67 65.95 67.24 67.51 67.38 68.11 68.02 68.81 68.43 68.21 68.36 68.17 69.02 69.45 69.32 69.14 69.60 68.69 68.35 67.35
39.00 33.36 36.13 36.88 37.55 37.94 36.78 35.74 37.74 36.51 37.43 33.14 35.28 35.44 39.44 41.60 41.67 43.01 44.83 47.49 50.89 51.88 60.18 62.03 63.71 65.79 66.01 65.07 66.45 67.09 67.89 68.01 68.32 67.62 68.24 68.50 69.20 69.33 68.85 68.29 68.08 67.58 67.46 65.68
41.20 35.34 36.73 34.71 37.88 37.73 35.97 37.96 38.67 38.64 38.17 37.70 37.74 37.07 43.02 45.12 45.58 45.67 47.80 48.98 49.66 50.99 54.96 62.06 62.95 64.58 63.16 64.78 65.05 66.09 66.41 66.73 68.57 67.73 67.74 68.30 67.87 67.68 67.55 67.53 64.94 64.61 65.54 65.67
36.98 36.64 34.37 30.29 36.29 35.42 32.31 37.54 38.66 39.48 40.31 39.33 35.29 40.15 44.70 43.54 44.75 47.36 48.28 49.36 49.82 50.87 52.68 60.86 62.54 63.84 65.46 65.13 64.95 64.47 66.66 67.48 66.99 66.47 66.08 65.66 65.66 64.79 64.62 65.56 64.83 64.53 65.46 66.18
37.59 36.51 35.56 32.15 34.05 24.49 37.35 43.09 42.44 39.53 41.23 42.19 42.42 43.53 45.06 45.96 48.02 48.00 49.08 49.94 50.41 51.34 53.20 60.41 63.71 64.53 65.58 65.31 64.48 65.32 66.25 65.63 65.05 64.60 64.44 65.00 64.80 64.57 64.36 64.20 63.98 64.13 66.18 66.50
41.23 36.63 33.22 29.45 29.43 33.71 36.45 39.89 38.39 36.36 36.03 42.58 43.35 45.51 46.65 48.05 48.87 49.72 52.39 52.52 52.69 54.07 60.46 61.68 64.83 65.01 65.50 65.37 64.36 64.99 64.50 64.56 63.91 63.95 64.76 64.53 64.04 63.62 63.68 64.02 63.82 65.01 66.07 65.56
41.75 39.16 34.37 32.02 27.50 25.10 35.42 39.30 41.42 42.19 32.25 43.28 43.95 44.07 45.99 48.49 42.25 46.84 54.18 55.89 56.73 59.02 59.17 62.10 64.31 64.98 66.91 64.30 63.83 64.32 64.00 63.87 63.42 64.20 63.84 64.56 64.30 63.57 63.72 64.45 64.14 65.24 65.56 65.46
36.53 34.37 30.89 31.16 30.23 33.58 38.52 40.45 40.49 30.60 34.53 42.31 42.86 43.15 43.66 44.43 46.80 52.11 54.91 54.70 57.78 59.20 59.85 60.96 63.57 63.58 65.75 65.34 64.73 63.93 63.77 63.24 64.69 65.09 64.66 64.94 63.75 64.55 64.64 64.84 65.36 66.05 65.03 64.85
34.61 32.34 31.93 33.86 30.41 28.56 42.36 39.41 33.75 39.46 41.11 41.03 41.48 42.44 43.55 45.92 49.03 52.12 53.36 55.65 58.17 58.96 60.05 61.84 62.89 64.92 66.16 64.80 64.83 63.88 64.11 64.94 65.37 64.97 64.33 64.36 64.61 63.26 65.13 64.59 64.28 65.78 66.08 64.41
35.42 37.31 34.71 34.75 34.97 42.64 43.57 41.04 42.60 43.24 40.38 40.41 41.66 46.78 46.59 47.08 48.64 51.79 53.29 57.12 58.34 59.40 61.02 62.81 63.57 65.68 64.22 64.66 64.94 64.58 65.02 65.33 65.08 64.88 63.98 64.37 64.99 63.14 65.10 63.38 63.33 65.56 65.20 64.08
42.11 41.57 35.07 37.79 40.29 41.71 42.60 44.09 44.61 43.34 42.18 44.02 46.76 49.08 49.85 50.19 51.39 52.38 53.56 57.30 58.15 60.34 60.15 63.03 65.00 63.14 62.88 64.34 65.60 65.35 65.45 65.63 65.11 63.97 63.83 64.39 63.61 64.25 64.39 64.25 65.96 64.54 63.89 64.12
42.74 42.26 40.63 39.06 41.42 42.16 42.58 43.51 43.61 43.12 44.61 45.15 46.68 47.85 49.30 49.72 50.47 52.05 53.86 57.16 59.03 60.55 61.49 63.39 62.51 62.74 63.72 64.16 65.15 65.03 65.30 65.39 63.60 64.01 63.30 63.16 63.39 64.15 62.55 57.93 57.49 61.75 54.59 57.08
45.17 41.45 39.62 37.20 42.59 40.31 40.53 44.41 45.25 42.98 43.54 45.09 45.54 46.12 48.02 49.46 50.11 53.24 54.56 57.63 58.89 60.41 61.88 61.99 63.25 62.93 62.69 63.38 64.99 65.42 65.73 64.62 64.67 64.13 62.34 62.42 63.30 63.74 63.98 61.39 57.67 42.63 42.78 41.03
MSLP
1005.09 1004.78 1004.11 1003.44 1003.05 1002.46 1002.07 1001.41 1000.30 999.48 998.90 998.60 997.66 996.40 995.14 995.27 995.53 995.64 995.83 996.10 996.17 996.06 996.06 995.61 995.85 995.96 996.42 997.00 997.80 998.51 999.37 1000.12 1000.78 1001.40 1001.71 1001.76 1001.71 1001.74 1001.55 1001.59 1001.70 1002.08 1002.67 1003.38
1005.27 1004.22 1003.72 1003.31 1003.04 1002.81 1002.67 1002.12 1001.16 1000.72 1000.40 999.98 998.51 997.13 995.76 995.03 994.46 994.55 994.70 995.03 995.37 995.39 995.16 995.28 995.41 995.34 995.79 996.42 997.37 998.09 998.77 999.41 1000.03 1000.76 1001.07 1001.13 1001.07 1000.68 1000.45 1000.71 1001.15 1001.70 1002.33 1003.09
1005.32 1004.72 1004.30 1003.85 1003.54 1003.14 1002.59 1002.29 1001.81 1001.39 1001.13 1000.81 999.57 998.00 996.65 995.40 994.90 994.52 994.35 994.09 994.13 994.61 994.92 995.06 994.78 994.86 995.34 996.04 996.89 997.53 998.27 998.83 999.17 999.96 1000.30 1000.56 1000.72 1000.22 1000.03 1000.17 1000.85 1001.37 1002.15 1002.95
1005.67 1005.22 1004.57 1004.03 1003.48 1003.45 1002.55 1002.55 1002.00 1001.61 1001.36 1000.63 1000.21 997.96 997.27 995.95 994.97 994.71 994.38 993.87 993.55 993.80 994.30 994.52 994.70 994.68 994.76 995.36 996.04 996.73 997.48 998.01 998.49 999.11 999.55 999.76 1000.02 999.97 999.70 999.78 1000.46 1001.29 1002.06 1002.75
1005.57 1005.01 1004.45 1004.08 1003.69 1003.35 1002.63 1002.60 1002.33 1002.08 1001.55 1001.07 1000.41 999.33 996.34 996.81 994.84 994.37 993.65 993.41 993.09 993.25 993.58 993.89 994.12 994.47 994.56 994.95 995.47 995.98 996.52 997.16 997.68 998.17 998.80 999.12 999.48 999.39 999.39 999.65 1000.45 1001.16 1002.07 1002.70
1004.92 1004.95 1004.82 1004.78 1004.63 1004.55 1004.16 1003.67 1002.94 1002.38 1001.84 1000.60 1000.06 999.44 996.82 996.26 995.28 994.32 993.29 992.53 992.31 992.31 992.51 992.73 993.11 993.64 993.97 994.35 994.70 995.11 995.69 996.18 996.69 997.31 997.95 998.55 998.90 999.06 999.14 999.56 1000.60 1001.61 1002.39 1003.03
1004.86 1004.86 1005.27 1006.22 1005.54 1004.50 1004.21 1004.10 1003.67 1002.56 1001.57 999.92 999.49 998.53 996.93 995.78 995.19 994.24 993.24 992.37 991.72 991.46 991.29 991.51 991.88 992.43 993.07 993.55 993.82 994.35 994.62 995.28 995.90 996.76 997.29 998.07 998.45 998.67 998.94 999.54 1000.56 1001.80 1002.48 1003.24
1005.42 1005.12 1005.70 1006.36 1006.09 1004.85 1004.18 1006.49 1005.46 1003.43 1002.06 1000.26 999.08 997.77 996.66 996.02 995.37 994.28 993.39 992.63 991.72 991.25 990.69 990.68 990.85 991.21 991.71 992.12 992.64 993.21 993.75 994.62 995.45 996.23 996.86 997.45 998.08 998.37 998.96 999.48 1000.46 1001.50 1002.32 1002.93
1005.87 1005.47 1005.47 1005.03 1004.73 1004.73 1003.91 1003.94 1005.02 1004.52 1003.40 1002.33 1000.08 998.39 996.99 996.33 995.50 994.74 993.47 992.59 991.46 991.04 990.65 990.26 990.48 990.98 991.26 991.34 991.70 992.50 993.31 994.16 995.03 995.69 996.45 997.01 997.61 998.00 998.68 999.37 1000.36 1001.13 1001.70 1002.28
1006.48 1005.64 1005.64 1004.81 1004.52 1005.28 1004.40 1003.68 1003.44 1004.51 1004.47 1002.29 1000.44 998.87 997.39 996.57 995.87 995.17 993.93 992.47 991.39 990.41 990.05 990.04 990.22 990.37 990.57 990.94 991.39 992.14 992.88 993.75 994.63 995.42 996.19 996.74 997.22 997.65 998.32 999.04 1000.06 1000.66 1001.26 1001.90
1007.19 1006.97 1005.96 1005.97 1004.17 1003.28 1003.30 1003.31 1004.21 1005.34 1005.18 1003.38 1000.92 998.83 998.14 999.19 999.81 999.01 995.87 993.00 991.21 990.86 990.36 990.25 990.34 990.27 990.36 990.80 991.61 992.18 992.88 993.62 994.56 995.31 996.07 996.70 997.33 997.75 998.39 999.20 999.84 1000.49 1001.17 1001.87
1008.36 1008.49 1007.06 1005.66 1004.00 1003.15 1003.01 1003.12 1003.98 1004.02 1004.20 1003.10 1001.37 999.11 999.98 1001.83 1002.06 1001.62 999.29 994.46 992.82 991.13 990.79 990.69 990.73 991.12 990.53 991.10 991.67 992.42 993.12 993.87 994.72 995.42 996.22 996.97 997.54 998.16 998.79 999.45 1000.17 1000.65 1001.36 1001.85
1010.80 1009.64 1008.26 1005.95 1003.82 1004.45 1004.66 1005.07 1004.34 1003.67 1003.88 1002.59 1001.60 999.54 1001.10 1002.56 1003.54 1002.21 1000.60 997.33 994.38 991.61 990.88 991.25 991.49 991.54 991.15 990.84 991.75 992.81 993.73 994.58 995.41 996.15 996.76 997.39 998.04 998.62 999.15 999.75 1000.33 1000.86 1001.51 1001.89
1011.61 1010.73 1009.49 1007.44 1005.76 1005.98 1006.38 1005.61 1003.50 1003.33 1002.65 1001.48 1000.43 1000.36 1001.00 1003.86 1004.23 1003.31 1001.44 999.10 994.12 991.30 989.41 991.17 991.71 991.43 990.86 990.67 992.08 993.11 994.18 995.04 995.95 996.54 997.20 997.84 998.41 999.07 999.64 1000.14 1000.62 1001.11 1001.55 1002.00
1011.57 1010.41 1008.96 1007.35 1006.04 1005.31 1004.74 1004.10 1001.73 1001.45 1000.51 1000.15 998.91 999.21 998.97 1001.30 1002.12 1001.41 999.39 997.84 994.49 992.13 991.49 991.77 992.33 991.68 990.90 991.24 992.43 993.60 994.51 995.24 995.94 996.78 997.34 998.09 998.74 999.36 999.90 1000.38 1000.86 1001.28 1001.78 1002.07
1010.63 1009.82 1008.68 1006.80 1005.60 1004.46 1003.21 1001.86 1000.66 999.71 999.70 998.45 997.90 997.59 997.22 997.26 998.75 998.56 997.54 995.60 993.88 992.11 991.62 991.99 992.40 992.11 991.54 992.43 992.91 993.68 994.40 995.21 995.53 996.53 997.48 998.26 998.92 999.51 1000.04 1000.55 1001.08 1001.61 1001.98 1002.31
1010.63 1009.98 1008.69 1006.23 1005.36 1004.87 1002.86 1000.75 1000.24 999.65 999.24 998.37 997.28 997.10 996.73 996.77 996.59 995.85 994.85 994.05 993.01 992.48 992.11 992.30 992.73 992.78 992.50 992.41 993.19 993.67 994.18 994.90 995.83 996.68 997.54 998.29 998.98 999.63 1000.19 1000.88 1001.44 1002.01 1002.30 1002.77
1010.03 1009.72 1008.92 1006.89 1005.98 1004.54 1002.32 1001.16 1001.90 1001.65 1000.85 1000.16 998.98 998.41 997.76 996.39 994.94 993.78 993.53 993.30 993.10 992.65 992.37 992.30 993.07 993.33 993.34 993.20 993.42 993.72 994.50 995.48 996.21 996.94 997.50 998.35 999.20 1000.02 1000.69 1001.20 1001.86 1002.20 1002.63 1003.15
1009.55 1009.95 1009.18 1007.82 1006.34 1004.96 1003.53 1003.24 1003.02 1003.01 1001.82 1001.58 1000.67 999.48 998.11 997.09 995.75 994.02 993.52 993.06 993.01 992.92 993.30 993.29 993.19 993.53 993.84 993.62 993.67 994.19 994.99 995.67 996.22 996.64 997.43 998.75 999.52 1000.31 1000.94 1001.54 1002.05 1002.48 1002.91 1003.57
1009.02 1009.78 1009.91 1008.50 1007.35 1006.01 1005.64 1005.66 1004.90 1004.41 1002.88 1002.80 1002.45 1001.41 1000.08 998.23 996.30 994.47 994.23 993.97 993.11 993.59 993.98 993.85 993.53 993.74 993.76 993.81 993.83 994.49 995.05 995.58 996.00 996.58 997.87 998.87 999.63 1000.39 1001.10 1001.81 1002.16 1002.71 1003.27 1003.59
1008.51 1009.19 1009.35 1008.55 1007.74 1006.59 1006.84 1006.90 1006.90 1006.05 1004.42 1003.56 1003.40 1002.87 1001.63 999.77 998.55 996.79 995.38 994.82 994.03 994.01 994.12 994.30 993.66 993.60 993.83 993.84 994.09 994.47 994.99 995.46 996.28 997.16 997.92 998.67 999.67 1000.34 1001.15 1001.91 1002.33 1002.86 1003.26 1003.58
1008.09 1008.73 1008.65 1008.38 1007.43 1006.62 1007.08 1007.29 1007.59 1006.25 1004.85 1005.04 1003.43 1002.59 1001.38 999.96 998.50 997.00 996.05 995.18 994.68 994.24 994.16 993.48 992.79 993.22 993.66 993.66 994.00 994.42 995.10 995.76 996.75 997.51 998.11 998.92 999.75 1000.29 1001.44 1001.99 1002.50 1003.08 1003.40 1003.93
1007.12 1007.91 1008.28 1008.38 1007.32 1006.84 1006.99 1006.85 1006.95 1006.43 1005.96 1004.72 1003.51 1001.25 1000.90 1000.03 998.86 997.64 996.62 995.66 995.08 994.68 994.45 993.55 992.70 993.01 993.47 993.56 994.04 994.82 995.63 996.33 997.09 997.80 998.57 999.18 999.87 1000.54 1001.42 1002.21 1002.81 1003.33 1003.68 1004.13
1006.41 1007.49 1007.88 1007.63 1006.67 1006.78 1006.57 1006.62 1006.24 1006.05 1005.45 1004.41 1002.93 1001.17 1000.06 999.34 998.50 997.77 997.04 995.89 995.18 994.57 994.21 993.24 992.69 993.13 993.10 993.66 994.23 995.21 996.07 996.63 997.29 998.27 998.90 999.76 1000.33 1000.93 1001.68 1002.33 1003.11 1003.50 1003.80 1004.25
1005.68 1006.63 1006.03 1006.21 1005.96 1006.07 1006.22 1006.20 1005.85 1005.35 1004.60 1003.66 1002.57 1001.54 1000.24 999.45 998.84 998.34 997.39 996.20 995.25 994.67 994.34 993.44 993.14 992.79 993.17 993.77 994.64 995.45 996.24 996.85 997.60 998.32 999.43 1000.09 1000.81 1001.47 1002.66 1003.79 1004.26 1004.37 1004.54 1004.73
1004.89 1005.35 1005.08 1005.35 1005.72 1006.04 1005.80 1005.40 1004.92 1005.05 1004.35 1003.55 1002.55 1001.38 1000.86 1000.49 999.76 998.56 997.31 995.93 995.11 994.31 993.31 993.52 992.70 992.61 993.64 994.27 994.90 995.64 996.13 997.03 997.69 998.53 999.48 1000.04 1000.64 1001.46 1002.36 1003.46 1004.80 1005.25 1005.29 1005.05
Wind_Speed
11 12 13 17 17 20 19 21 25 26 26 26 22 25 27 23 25 25 20 19 23 26 22 19 20 13 18 10 10 10 9 7 4 3 4 5 7 6 6 7 7 7 10 12
13 15 15 15 17 19 20 23 25 24 23 22 24 28 29 21 21 20 21 22 22 20 18 21 17 12 10 12 9 9 9 9 7 6 6 4 6 8 8 6 6 7 9 10
15 17 20 19 19 22 19 19 21 23 20 20 25 27 26 26 24 19 20 20 21 19 20 18 14 9 6 8 10 11 11 10 9 11 6 5 6 4 3 6 5 5 7 9
15 19 20 20 22 19 21 20 23 22 19 17 18 19 21 22 24 21 23 23 17 16 17 18 16 12 8 5 6 7 10 11 11 11 9 10 9 7 5 5 6 6 6 8
18 19 19 21 23 22 24 23 21 22 22 22 22 17 19 22 24 23 20 22 19 16 18 22 19 11 9 9 8 9 10 12 13 12 13 9 9 6 4 4 9 8 5 6
20 18 15 17 21 22 22 24 25 22 18 18 23 21 21 19 22 25 22 19 22 23 24 19 18 17 14 12 12 9 13 13 13 11 12 10 10 8 6 6 8 5 5 4
17 17 8 12 18 20 14 16 14 16 15 17 22 22 17 23 23 27 23 21 19 18 16 16 21 20 19 20 18 17 13 12 12 13 11 13 9 12 6 12 9 9 6 5
12 15 8 5 21 21 9 7 7 13 16 17 20 15 16 20 23 23 23 24 19 14 14 16 11 11 15 13 13 10 8 10 11 11 11 10 11 6 7 10 9 7 7 8
14 15 19 20 17 17 19 14 13 14 17 18 18 24 19 22 22 22 24 23 17 15 14 10 6 10 12 9 10 10 9 9 10 11 10 10 10 9 11 12 12 10 11 9
14 21 19 23 10 18 24 19 10 1 7 17 17 21 14 15 16 21 22 20 23 14 9 9 8 7 6 6 8 10 10 11 11 11 10 10 10 8 13 11 13 12 10 11
18 14 17 20 20 16 11 10 6 8 6 11 15 13 8 22 25 28 28 20 4 8 11 11 7 6 8 8 8 7 8 11 11 11 11 11 9 10 12 12 10 9 10 11
10 7 17 22 25 21 19 16 13 9 13 14 12 19 16 21 27 31 35 9 15 6 1 8 7 5 4 9 11 8 9 9 9 10 11 12 12 11 11 12 11 10 10 8
9 5 11 14 19 9 7 14 18 15 9 15 13 14 15 22 24 29 27 20 23 11 10 7 10 11 13 13 13 12 13 13 12 12 11 11 9 10 10 10 10 9 8 6
5 7 15 16 21 4 7 19 25 19 11 15 14 19 8 9 12 23 25 26 19 13 9 5 3 10 10 14 15 14 15 14 12 12 12 12 11 11 10 10 9 8 6 6
6 9 15 20 23 22 21 27 31 23 19 19 15 18 11 9 7 19 20 31 16 12 5 7 7 8 6 16 13 17 17 15 16 14 13 12 11 11 10 9 7 7 7 6
4 6 15 18 19 22 24 25 27 25 21 22 18 17 13 9 13 22 28 18 11 11 9 3 7 3 11 14 13 14 15 14 15 15 14 12 11 10 8 7 7 7 6 8
3 5 9 16 16 15 15 17 17 24 17 21 18 12 14 9 14 18 10 14 10 11 14 6 6 6 6 8 13 10 15 14 13 13 12 11 10 9 6 8 6 7 7 7
5 9 7 11 13 11 8 17 13 17 18 23 23 17 19 21 20 13 11 12 11 13 11 3 7 6 3 4 10 13 14 13 13 13 13 12 11 9 8 6 8 6 6 7
8 3 5 5 7 13 17 8 10 12 22 16 15 18 18 19 20 16 9 11 12 10 11 12 11 8 5 4 12 14 14 13 13 13 15 13 12 8 8 6 8 6 6 6
6 6 4 4 5 5 6 13 19 14 13 13 13 14 18 22 9 6 17 20 3 9 9 9 9 11 10 7 12 13 13 13 13 13 16 15 13 10 7 10 8 5 6 5
2 2 6 10 6 6 4 6 5 5 7 20 21 18 19 16 14 18 16 15 16 8 8 11 13 13 10 6 12 13 12 11 15 13 10 9 12 10 9 9 7 5 5 7
3 2 3 3 5 3 4 5 4 8 20 21 23 21 20 19 20 17 17 17 18 9 8 11 17 16 12 10 12 12 11 14 13 10 10 11 13 10 10 9 5 4 4 9
3 6 2 5 5 12 12 12 9 12 13 20 19 24 17 17 18 17 18 19 15 8 6 8 17 15 8 15 12 15 14 13 11 10 8 9 6 9 12 8 5 5 5 6
7 5 3 3 1 13 12 9 10 9 14 18 16 15 8 12 15 16 19 15 11 6 10 10 13 13 15 14 16 16 13 11 12 7 10 10 8 9 7 6 5 4 5 6
10 8 7 5 8 8 2 13 5 12 14 15 14 13 15 13 15 14 13 11 8 7 6 15 11 14 16 13 17 15 13 11 10 11 12 10 7 8 9 8 5 5 4 2
4 5 3 3 7 4 13 13 5 9 13 14 12 14 13 14 15 16 15 9 6 5 5 7 11 17 15 13 17 15 13 9 12 11 10 8 9 8 8 8 8 14 8 7
Wind_Direction
315 299 277 283 271 273 291 284 279 282 293 299 290 265 261 238 237 237 239 237 232 250 259 256 242 228 220 169 163 161 168 188 186 221 217 231 224 225 222 209 206 186 176 176
289 269 271 285 275 275 274 277 278 286 291 291 285 281 280 271 256 243 231 226 239 257 252 242 255 223 192 163 166 169 179 181 186 208 227 234 223 222 211 185 183 179 165 174
297 299 304 294 289 284 276 272 276 282 290 283 284 280 275 272 277 283 283 265 223 228 255 262 263 234 172 181 181 181 186 189 195 214 231 220 244 258 257 167 169 159 155 164
295 296 287 282 272 278 278 279 281 282 282 276 277 275 262 269 264 252 257 269 249 232 242 263 267 255 236 202 201 185 184 194 208 206 218 209 218 217 217 165 155 150 166 180
289 293 288 288 284 291 285 290 281 279 277 281 268 261 268 269 271 257 255 246 254 252 240 237 250 264 268 243 234 222 198 194 203 199 213 212 220 203 198 146 134 150 157 168
269 279 287 309 307 302 305 294 291 272 270 258 261 259 266 263 262 265 267 257 232 232 241 236 225 234 241 248 246 223 204 206 192 197 192 204 208 216 180 148 131 141 127 134
316 316 16 342 318 288 266 273 266 250 245 257 253 250 257 267 266 262 267 267 279 274 234 228 225 221 222 226 234 233 200 191 181 185 183 204 233 199 195 139 145 154 149 168
322 311 5 219 270 291 259 232 263 271 273 279 296 290 294 307 299 284 274 277 262 287 266 236 231 226 220 215 215 207 178 169 167 182 194 191 210 181 137 139 143 156 166 189
311 293 290 296 298 292 286 258 179 282 283 280 277 285 266 265 270 263 266 253 254 256 255 256 229 235 237 239 185 177 170 166 182 186 180 180 189 188 150 149 158 171 175 179
314 303 300 301 293 307 281 297 290 169 276 275 257 252 277 262 272 246 258 252 240 233 227 238 243 251 244 220 180 175 173 161 162 167 173 178 173 169 153 157 165 163 158 169
304 300 309 311 280 266 273 235 295 345 274 280 264 267 276 8 355 329 311 271 144 260 231 232 245 240 226 133 117 132 160 152 152 159 168 153 167 131 132 139 134 136 144 145
7 296 288 290 293 287 285 301 188 266 283 255 277 272 24 13 349 336 327 69 302 254 77 265 266 274 165 179 144 137 143 129 130 130 129 128 123 126 120 117 130 136 134 147
2 287 301 293 277 61 20 321 309 294 307 283 278 282 358 25 343 328 323 319 280 328 161 211 219 220 222 164 153 132 124 112 116 122 114 117 119 123 121 123 128 134 148 167
244 249 254 270 284 110 272 285 285 277 271 272 275 296 337 44 319 313 305 306 288 309 70 160 183 228 238 129 127 125 125 124 121 127 134 134 133 135 133 135 144 138 135 127
181 262 274 264 269 275 243 239 258 240 253 250 293 284 293 177 206 275 267 261 281 326 88 169 196 228 83 114 128 132 138 143 144 149 137 133 134 137 136 139 131 134 141 163
187 269 283 282 276 269 269 265 270 273 274 274 275 277 268 231 190 243 249 273 311 324 345 126 206 162 90 138 129 134 142 152 135 129 133 139 146 142 130 132 145 144 111 94
242 285 298 283 298 342 286 281 315 305 278 273 267 321 328 273 249 254 319 318 313 307 298 132 208 173 179 104 144 146 131 129 129 131 135 140 142 136 123 121 144 115 114 104
220 295 269 288 299 272 325 332 331 348 319 350 346 342 318 318 317 285 296 279 280 295 291 128 167 183 212 133 127 123 123 130 138 148 155 128 118 115 120 148 112 117 114 105
216 294 279 271 271 283 301 10 344 358 314 327 344 335 307 297 297 295 333 275 276 283 358 330 157 179 213 141 128 131 138 153 155 158 137 133 132 131 141 125 126 127 114 129
180 214 261 297 280 284 34 23 356 341 292 20 341 327 320 319 276 306 347 343 13 31 332 327 190 173 184 155 141 144 156 155 163 129 131 144 151 148 138 130 131 122 134 158
277 196 241 259 273 255 69 344 341 287 343 335 323 310 303 303 321 313 316 313 309 355 312 309 184 186 173 132 150 160 157 158 110 119 128 136 127 146 121 136 130 138 183 124
226 278 270 278 270 330 302 348 224 330 309 308 303 298 291 288 292 298 296 295 315 327 316 289 182 176 171 159 154 157 119 108 118 137 146 127 137 147 138 136 132 164 147 111
282 208 230 206 240 315 310 288 241 273 293 293 288 277 253 267 278 293 295 295 302 316 283 230 179 162 172 145 176 118 117 126 132 129 114 118 98 128 125 139 156 135 144 148
317 106 223 273 100 302 310 321 299 323 293 295 303 313 270 279 282 289 297 300 334 287 297 207 178 169 149 157 126 127 137 146 131 123 120 110 102 113 125 161 142 179 170 165
296 181 244 227 278 314 7 314 295 315 305 310 320 320 309 316 304 294 311 308 299 273 254 209 174 157 141 148 125 133 147 157 133 128 114 118 117 106 84 64 6 77 58 306
339 299 335 272 41 358 322 291 2 335 312 313 326 318 326 314 312 308 294 291 309 246 234 270 201 134 136 155 140 147 144 135 129 131 137 151 140 151 132 119 89 39 39 32